Location: Newark
(33.9035°S, 18.4112°E)
Time: 10:43:55
(UTC+00:00)

STARLINK-1144 - Pass Details

Date: 22 January 2020
Orbit: 531 x 533 km, 53.0° (Epoch: 18 February)

Event Time Altitude Azimuth Distance (km) Brightness Sun altitude
Exits shadow 00:50:59 13° 92° (E) 1,582 6.3 -29.9°
Drops below altitude 10° 00:51:41 10° 100° (E) 1,767 6.7 -29.8°
Enters shadow 01:50:25 -67° 313° (NW) 12,265 10.4 -22.3°
Maximum altitude 02:27:33 42° 221° (SW) 755 4.3 -16.7°
